Satellite-Ground Cal/Val Site Overpasses Predictions

Prediction of Satellite NPP Overpassing Cal/Val Site: Antarctic Dome C

Ground Cal/Val Site Location: Latitude: -75.10, Longitude: 123.35; Satellite-Ground Site NADIR distance within 100 km.

Table of predicted overpasses for the next 14.0 days since TLE Epoch: 11/4/2023
Interval Starting Time Ending Time Minimum Distance Time Minimum Distance (km)
1 11/04/2023 14:43:05 11/04/2023 14:43:29 11/04/2023 14:43:17 51.80
2 11/05/2023 07:44:45 11/05/2023 07:45:05 11/05/2023 07:44:55 72.75
3 11/06/2023 07:25:53 11/06/2023 07:26:20 11/06/2023 07:26:07 35.18
4 11/08/2023 15:08:20 11/08/2023 15:08:28 11/08/2023 15:08:24 95.30
5 11/09/2023 14:49:19 11/09/2023 14:49:48 11/09/2023 14:49:33 16.11
6 11/11/2023 07:32:09 11/11/2023 07:32:39 11/11/2023 07:32:24 1.92
7 11/14/2023 14:55:36 11/14/2023 14:56:04 11/14/2023 14:55:50 20.69
8 11/15/2023 14:36:54 11/15/2023 14:37:09 11/15/2023 14:37:01 86.35
9 11/16/2023 07:38:26 11/16/2023 07:38:53 11/16/2023 07:38:39 37.98
